Athens Eleftherios, Greece

12:06 PM EEST on August 20, 2017 (GMT +0300)
Eleftherios Venizelos International

Weather History for LGAV - December, 2012

Change the Weather History Date:

Saturday, December 29, 2012

  Actual Average (LGAT) Record (LGAT)
Temperature  
Mean Temperature 48 °F -  
Max Temperature 55 °F 56 °F 64 °F (1999)
Min Temperature 42 °F 45 °F 32 °F (2016)
Degree Days  
Heating Degree Days 16    
Moisture  
Dew Point 48 °F    
Average Humidity 87    
Maximum Humidity 94    
Minimum Humidity 72    
Precipitation  
Precipitation 0.00 in - - ()
Sea Level Pressure  
Sea Level Pressure 29.94 in    
Wind  
Wind Speed 3 mph ()    
Max Wind Speed 10 mph    
Max Gust Speed -    
Visibility 5.5 miles    
Events Rain , Thunderstorm    
Averages and records for this station are not official NWS values.
T = Trace of Precipitation, MM = Missing Value Source: Averaged Metar Reports

Daily Weather History Graph

Daily Weather History Graph

Search for Another Location

Airport or City:

Trip Planner

Search our weather history database for the weather conditions in past years. The results will help you decide how hot, cold, wet, or windy it might be!

Date:

Astronomy

Dec. 29, 2012 Rise Set
Actual Time 7:39 AM EET 5:13 PM EET
Civil Twilight 7:10 AM EET 5:42 PM EET
Nautical Twilight 6:37 AM EET 6:15 PM EET
Astronomical Twilight 6:05 AM EET 6:47 PM EET
Moon 6:26 PM EET (12/29) 8:02 AM EET (12/29)
Length of Visible Light 10h 32m
Length of Day
9h 33m
Full, 99% of the Moon is Illuminated
Dec 29
Full
Jan 5
Last Quarter
Jan 11
New
Jan 19
First Quarter
Jan 27
Full

Hourly Weather History & Observations

Time (EET) Temp. Windchill Dew Point Humidity Pressure Visibility Wind Dir Wind Speed Gust Speed Precip Events Conditions
12:50 AM 46.4 °F 44.3 °F 44.6 °F 93% 29.92 in 6.2 mi WNW 4.6 mph - N/A   Mostly Cloudy
1:20 AM 44.6 °F - 41.0 °F 87% 29.92 in 6.2 mi Variable 1.2 mph - N/A   Mostly Cloudy
1:50 AM 42.8 °F - 41.0 °F 93% 29.92 in 6.2 mi Variable 2.3 mph - N/A   Mostly Cloudy
2:20 AM 46.4 °F - 44.6 °F 93% 29.92 in 6.2 mi NW 1.2 mph - N/A   Scattered Clouds
2:50 AM 46.4 °F - 42.8 °F 87% 29.92 in 6.2 mi North 2.3 mph - N/A   Scattered Clouds
3:20 AM 46.4 °F - 44.6 °F 93% 29.92 in 6.2 mi Variable 2.3 mph - N/A   Scattered Clouds
3:50 AM 48.2 °F - 46.4 °F 93% 29.89 in 6.2 mi NNE 2.3 mph - N/A   Scattered Clouds
4:20 AM 50.0 °F - 46.4 °F 87% 29.89 in 6.2 mi Variable 2.3 mph - N/A   Scattered Clouds
4:50 AM 48.2 °F - 46.4 °F 93% 29.89 in 6.2 mi Variable 2.3 mph - N/A   Scattered Clouds
5:20 AM 50.0 °F - 46.4 °F 87% 29.89 in 6.2 mi North 4.6 mph - N/A   Scattered Clouds
5:50 AM 50.0 °F - 48.2 °F 94% 29.89 in 6.2 mi Variable 1.2 mph - N/A   Mostly Cloudy
6:20 AM 50.0 °F - 48.2 °F 94% 29.89 in 6.2 mi West 2.3 mph - N/A   Mostly Cloudy
6:50 AM 51.8 °F - 46.4 °F 82% 29.89 in 6.2 mi Calm Calm - N/A   Mostly Cloudy
7:20 AM 50.0 °F - 46.4 °F 87% 29.89 in 3.7 mi Variable 1.2 mph - N/A   Mostly Cloudy
7:50 AM 51.8 °F - 48.2 °F 88% 29.89 in 3.7 mi WNW 3.5 mph - N/A   Mostly Cloudy
8:20 AM 51.8 °F - 48.2 °F 88% 29.92 in 5.0 mi Variable 1.2 mph - N/A   Mostly Cloudy
8:50 AM 55.4 °F - 51.8 °F 88% 29.92 in 6.2 mi North 2.3 mph - N/A   Mostly Cloudy
9:20 AM 55.4 °F - 51.8 °F 88% 29.92 in 6.2 mi North 3.5 mph - N/A   Mostly Cloudy
9:50 AM 55.4 °F - 51.8 °F 88% 29.92 in 6.2 mi Variable 2.3 mph - N/A   Mostly Cloudy
10:20 AM 55.4 °F - 50.0 °F 82% 29.92 in 5.6 mi Variable 3.5 mph - N/A   Mostly Cloudy
10:50 AM 55.4 °F - 50.0 °F 82% 29.95 in 5.6 mi East 4.6 mph - N/A   Mostly Cloudy
11:20 AM 53.6 °F - 48.2 °F 82% 29.95 in 4.3 mi Variable 3.5 mph - N/A Rain , Thunderstorm Light Thunderstorms and Rain
11:50 AM 55.4 °F - 46.4 °F 72% 29.95 in 6.2 mi Variable 3.5 mph - N/A   Overcast
12:20 PM 55.4 °F - 46.4 °F 72% 29.92 in 6.2 mi Variable 3.5 mph - N/A Rain Light Rain
12:50 PM 53.6 °F - 48.2 °F 82% 29.92 in 4.3 mi SW 6.9 mph - N/A Rain , Thunderstorm Light Thunderstorms and Rain
1:20 PM 51.8 °F - 48.2 °F 88% 29.92 in 3.1 mi West 4.6 mph - N/A Rain , Thunderstorm Light Thunderstorms and Rain
1:50 PM 51.8 °F - 48.2 °F 88% 29.95 in 2.5 mi NW 4.6 mph - N/A Rain , Thunderstorm Light Thunderstorms and Rain
2:20 PM 51.8 °F - 46.4 °F 82% 29.92 in 6.2 mi NW 4.6 mph - N/A Rain Light Rain
2:50 PM 51.8 °F - 48.2 °F 88% 29.95 in 3.1 mi SW 2.3 mph - N/A Rain Light Rain
3:20 PM 51.8 °F - 50.0 °F 94% 29.95 in 6.2 mi NNE 3.5 mph - N/A Rain Light Rain
3:50 PM 51.8 °F - 50.0 °F 94% 29.95 in 5.0 mi West 3.5 mph - N/A Rain Light Rain
4:20 PM 51.8 °F - 50.0 °F 94% 29.95 in 4.3 mi WSW 4.6 mph - N/A Rain Light Rain
4:50 PM 51.8 °F - 50.0 °F 94% 29.95 in 4.3 mi North 4.6 mph - N/A Rain Light Rain
5:20 PM 51.8 °F - 48.2 °F 88% 29.95 in 3.7 mi North 8.1 mph - N/A Rain Light Rain
5:50 PM 51.8 °F - 46.4 °F 82% 29.95 in 6.2 mi North 4.6 mph - N/A   Overcast
6:20 PM 51.8 °F - 46.4 °F 82% 29.95 in 6.2 mi NE 2.3 mph - N/A   Overcast
6:50 PM 51.8 °F - 46.4 °F 82% 29.95 in 6.2 mi Calm Calm - N/A   Mostly Cloudy
7:20 PM 51.8 °F - 46.4 °F 82% 29.98 in 6.2 mi Variable 3.5 mph - N/A   Mostly Cloudy
7:50 PM 53.6 °F - 48.2 °F 82% 29.98 in 6.2 mi North 5.8 mph - N/A   Mostly Cloudy
8:20 PM 53.6 °F - 48.2 °F 82% 29.98 in 6.2 mi North 9.2 mph - N/A   Mostly Cloudy
8:50 PM 53.6 °F - 48.2 °F 82% 29.98 in 6.2 mi NNW 5.8 mph - N/A   Mostly Cloudy
9:20 PM 53.6 °F - 48.2 °F 82% 29.98 in 6.2 mi NNE 5.8 mph - N/A   Drizzle
9:50 PM 53.6 °F - 48.2 °F 82% 30.01 in 4.3 mi NNE 8.1 mph - N/A Rain Rain
10:20 PM 53.6 °F - 48.2 °F 82% 30.01 in 6.2 mi NNE 6.9 mph - N/A Rain Light Rain
10:50 PM 51.8 °F - 48.2 °F 88% 30.01 in 5.6 mi ENE 4.6 mph - N/A Rain Light Rain
11:20 PM 50.0 °F - 48.2 °F 94% 30.01 in 6.2 mi NNE 10.4 mph - N/A Rain Light Rain
11:50 PM 50.0 °F - 48.2 °F 94% 30.04 in 5.6 mi NNE 8.1 mph - N/A Rain Light Rain